Flag for Finland Weather past 2 weeks in Kemi, Finland

Now
50 °F

Sunny.


Feels Like: 47 °F
Forecast: 33 / 45 °F
Wind: 7 mph from North

Location: Kemi Airport

Current Time: Apr 21, 2015 at 3:46:15 PM

Latest Report: Apr 21, 2015 at 2:50 PM


Visibility: 10 mi

Pressure: 30.04 "Hg

Humidity: 58%

Dew point: 36 °F

Location of KemiLocation

Historic Weather in Kemi — Graph

°F

Kemi temperature yesterday

Maximum temperature yesterday: 45 °F (at 1:20 PM)
Minimum temperature yesterday: 32 °F (at 5:20 AM)
Average temperature yesterday: 39 °F

Past Weeks' High & Low Weather Summary

 TemperatureHumidityPressure
High48 °F (Apr 19, 1:50 PM)100% (Apr 6, 2:20 PM)30.07 "Hg (Apr 6, 2:20 PM)
Low27 °F (Apr 10, 6:20 AM)42% (Apr 8, 1:20 PM)29.24 "Hg (Apr 10, 5:20 PM)
Average37 °F79%29.66 "Hg
* Reported Apr 6 2:20 PM — Apr 21 2:20 PM, Kemi, Weather by CustomWeather, © 2015

Note: Actual official high and low records may vary slightly from our data, if they occured in-between our weather recording intervals... More about our weather records

Advertising

Kemi weather history for previous 24 hours

 ConditionsComfort  
Time TempWeatherWind HumidityBarometerVisibility
2:20 PM
Tue, Apr 21
48 °FPassing clouds.8 mph62%30.04 "HgN/A
1:50 PM48 °FPassing clouds.12 mph58%30.04 "HgN/A
1:20 PM48 °FPassing clouds.8 mph58%30.04 "HgN/A
12:50 PM46 °FPassing clouds.6 mph66%30.04 "HgN/A
12:20 PM46 °FPassing clouds.7 mph62%30.04 "HgN/A
11:50 AM46 °FPassing clouds.6 mph62%30.04 "HgN/A
11:20 AM46 °FPassing clouds.6 mph62%30.04 "HgN/A
10:50 AM45 °FPassing clouds.5 mph66%30.04 "HgN/A
10:20 AM45 °FPassing clouds.6 mph66%30.04 "HgN/A
9:50 AM45 °FPassing clouds.6 mph66%30.04 "HgN/A
9:30 AM43 °FPassing clouds.6 mph71%30.04 "HgN/A
8:50 AM39 °FSunny.2 mph75%30.04 "Hg10 mi
8:20 AM39 °FSunny.3 mph75%30.04 "Hg10 mi
7:50 AM39 °FSunny.3 mph75%30.04 "Hg10 mi
7:20 AM37 °FSunny.6 mph81%30.04 "Hg10 mi
6:50 AM37 °FSunny.2 mph81%30.04 "Hg10 mi
6:20 AM36 °FClear.2 mph81%30.04 "Hg10 mi
5:50 AM36 °FClear.2 mph81%30.07 "Hg10 mi
5:20 AM36 °FClear.2 mph87%30.07 "Hg10 mi
4:50 AM34 °FClear.1 mph87%30.07 "Hg10 mi
4:20 AM36 °FClear.2 mph81%30.07 "Hg10 mi
3:50 AM36 °FClear.2 mph81%30.04 "Hg10 mi
3:20 AM39 °FPassing clouds.5 mph75%30.04 "HgN/A
2:50 AM39 °FClear.6 mph75%30.04 "Hg10 mi
2:20 AM39 °FPassing clouds.5 mph75%30.04 "HgN/A
1:50 AM37 °FClear.6 mph75%30.04 "Hg10 mi
1:20 AM39 °FClear.6 mph70%30.04 "Hg10 mi
12:50 AM39 °FPassing clouds.5 mph70%30.04 "HgN/A
12:20 AM37 °FClear.2 mph75%30.04 "Hg10 mi
11:50 PM
Mon, Apr 20
37 °FClear.3 mph75%30.04 "Hg10 mi
11:20 PM37 °FClear.5 mph75%30.04 "Hg10 mi
10:50 PM37 °FPassing clouds.6 mph75%30.04 "HgN/A
10:20 PM37 °FPassing clouds.6 mph75%30.04 "HgN/A
9:50 PM37 °FSunny.3 mph81%30.01 "Hg10 mi
9:20 PM37 °FSprinkles. Overcast.6 mph81%30.01 "HgN/A
8:50 PM39 °FSprinkles. Overcast.3 mph75%30.04 "HgN/A
8:20 PM39 °FSunny.2 mph75%30.04 "Hg10 mi
7:50 PM39 °FLight rain. Overcast.2 mph75%30.01 "HgN/A
7:20 PM41 °FLight rain. Overcast.3 mph66%30.04 "HgN/A
6:50 PM41 °FSunny.5 mph66%30.01 "Hg10 mi
6:20 PM43 °FSunny.3 mph57%30.01 "Hg10 mi
5:50 PM45 °FOvercast.3 mph53%30.04 "HgN/A
5:20 PM45 °FPassing clouds.6 mph57%30.04 "HgN/A
4:50 PM45 °FPassing clouds.6 mph53%30.04 "HgN/A
4:20 PM45 °FPartly sunny.6 mph49%30.04 "HgN/A
3:50 PM45 °FPartly sunny.7 mph49%30.04 "HgN/A
3:20 PM45 °FPartly sunny.6 mph46%30.04 "HgN/A
Weather by CustomWeather, © 2015

See weather overviewHow to use our weather pages